FW2905 Weather Reports


Display with metric or nautical units.
time (UTC)temp
F
wind
direction
speed
MPH
gust
MPH
rain 1hr
in
rain 24hr
in
rain mn
in
humidity
%
barometer
mb
20260904141019 66 160 2.0 8.0 0.19 1.93 1.87 94 1016.6
20260904140516 66 153 5.0 9.0 0.20 1.93 1.87 94 1016.3
20260904140040 66 168 5.0 15.0 0.29 1.93 1.87 94 1016.2
20260904135527 66 155 5.0 16.0 0.43 1.93 1.86 94 1016.1
20260904135019 66 163 7.0 16.0 0.56 1.93 1.86 94 1015.9
20260904134549 66 159 7.0 15.0 0.79 1.92 1.85 94 1015.9
20260904134020 66 171 6.0 10.0 0.94 1.92 1.85 94 1015.8
20260904133518 66 180 6.0 10.0 0.93 1.91 1.84 94 1016.2
20260904133055 66 163 1.0 10.0 0.92 1.90 1.83 94 1017.4
20260904132523 66 162 4.0 10.0 0.89 1.86 1.79 94 1017.1
20260904132021 66 149 5.0 10.0 0.82 1.79 1.72 94 1016.8
20260904131538 66 139 5.0 8.0 0.78 1.75 1.68 94 1017.2
20260904131019 66 133 2.0 9.0 0.78 1.75 1.68 94 1017.1
20260904130522 66 145 5.0 10.0 0.76 1.73 1.66 94 1016.8
20260904130042 66 95 4.0 10.0 0.67 1.64 1.57 93 1017.5
20260904125519 66 159 3.0 11.0 0.50 1.47 1.40 93 1017.7
20260904125019 67 71 4.0 18.0 0.39 1.36 1.29 93 1017.8
20260904124542 67 313 8.0 18.0 0.12 1.09 1.02 93 1017.9
20260904124017 67 341 8.0 18.0 0.01 0.98 0.91 93 1017.3
20260904123522 67 16 3.0 14.0 0.01 0.98 0.91 93 1016.1
20260904123038 67 89 4.0 9.0 0.01 0.98 0.91 93 1015.8
20260904122523 67 71 6.0 9.0 0.00 0.97 0.90 93 1016.8
20260904122019 67 32 2.0 11.0 0.00 0.97 0.90 93 1016.3
20260904121542 67 144 3.0 11.0 0.00 0.97 0.90 93 1015.4
20260904121017 67 148 5.0 16.0 0.00 0.97 0.90 93 1015.4
20260904120519 67 82 3.0 16.0 0.00 0.97 0.90 92 1015.4
20260904120054 67 9 5.0 16.0 0.00 0.97 0.90 92 1015.3
20260904115521 67 170 4.0 12.0 0.00 0.97 0.90 92 1015.8
20260904115024 67 58 2.0 9.0 0.00 0.97 0.90 92 1016.0
20260904114538 67 113 4.0 14.0 0.00 0.97 0.90 92 1015.7
20260904114021 67 105 7.0 14.0 0.00 0.97 0.90 92 1016.2
20260904113522 67 39 7.0 14.0 0.00 0.97 0.90 92 1016.0
20260904113041 67 88 4.0 14.0 0.00 0.97 0.90 93 1016.1
20260904112523 67 93 5.0 14.0 0.00 0.97 0.90 93 1015.8
20260904112021 66 23 4.0 12.0 0.00 0.97 0.90 94 1015.5
20260904111537 66 71 3.0 13.0 0.00 0.97 0.90 94 1015.3
20260904111018 66 80 4.0 13.0 0.00 0.97 0.90 94 1015.3
20260904110520 66 56 5.0 14.0 0.06 0.97 0.90 94 1015.5
20260904110042 66 98 6.0 17.0 0.08 0.97 0.90 94 1015.7
20260904105521 66 74 5.0 17.0 0.08 0.97 0.90 94 1015.7
20260904105023 66 62 6.0 17.0 0.09 0.97 0.90 94 1015.8
20260904104617 66 67 5.0 10.0 0.16 0.97 0.90 94 1015.4
20260904104028 66 67 3.0 8.0 0.39 0.97 0.90 93 1015.0
20260904103523 66 51 4.0 10.0 0.41 0.97 0.90 93 1014.7
20260904103038 66 129 3.0 10.0 0.41 0.97 0.90 93 1014.5
20260904102524 66 38 2.0 6.0 0.41 0.97 0.90 93 1014.5
20260904102025 66 158 1.0 10.0 0.41 0.97 0.90 93 1014.2
20260904101546 66 0 3.0 10.0 0.41 0.97 0.90 93 1014.3
20260904101019 66 127 4.0 10.0 0.44 0.97 0.90 93 1014.2
20260904100517 67 65 2.0 10.0 0.46 0.90 0.83 94 1014.6
20260904100056 67 188 4.0 15.0 0.47 0.89 0.82 94 1014.0
20260904095521 67 60 5.0 15.0 0.47 0.89 0.82 94 1013.8
20260904095020 67 181 5.0 12.0 0.45 0.87 0.80 93 1014.1
20260904094551 67 78 6.0 12.0 0.37 0.79 0.72 93 1014.7
20260904094019 67 94 2.0 12.0 0.16 0.58 0.51 93 1015.2
20260904093527 67 219 4.0 12.0 0.14 0.56 0.49 93 1014.4
20260904093038 67 111 6.0 12.0 0.14 0.56 0.49 93 1014.6
20260904092520 68 92 6.0 14.0 0.14 0.56 0.49 93 1014.7
20260904092019 68 78 6.0 14.0 0.15 0.56 0.49 93 1015.2
20260904091539 68 133 4.0 11.0 0.16 0.56 0.49 93 1014.8
20260904091019 69 109 4.0 10.0 0.13 0.52 0.46 92 1014.6
20260904090526 69 19 2.0 11.0 0.04 0.44 0.37 92 1015.0
20260904090042 69 57 5.0 13.0 0.02 0.42 0.35 91 1014.5
20260904085520 69 46 9.0 16.0 0.02 0.42 0.35 91 1014.4
20260904085022 69 40 8.0 20.0 0.02 0.42 0.35 90 1015.0
20260904084540 69 23 11.0 20.0 0.02 0.42 0.35 91 1014.5
20260904084019 69 56 8.0 18.0 0.02 0.42 0.35 91 1014.5
20260904083518 69 343 5.0 19.0 0.02 0.42 0.35 90 1015.7
20260904083048 70 335 9.0 19.0 0.02 0.42 0.35 90 1015.6
20260904082521 70 38 7.0 18.0 0.02 0.42 0.35 91 1015.6
20260904082020 70 344 10.0 18.0 0.01 0.41 0.34 93 1015.6
20260904081544 71 44 7.0 15.0 0.00 0.40 0.33 94 1015.0
20260904081020 71 172 4.0 8.0 0.00 0.40 0.33 94 1013.5
20260904080522 70 179 4.0 7.0 0.00 0.40 0.33 94 1012.9
20260904080042 70 184 3.0 6.0 0.00 0.40 0.33 94 1013.0
20260904075517 70 148 1.0 9.0 0.00 0.40 0.33 94 1013.4
20260904075023 70 174 1.0 9.0 0.00 0.40 0.33 94 1013.4
20260904074541 70 146 4.0 9.0 0.00 0.40 0.33 94 1013.4
20260904074027 70 146 1.0 9.0 0.00 0.40 0.33 94 1013.6
20260904073519 70 136 0.0 9.0 0.00 0.40 0.33 94 1013.7
20260904073037 70 97 3.0 6.0 0.00 0.40 0.33 93 1013.5
20260904072522 70 109 1.0 8.0 0.00 0.40 0.33 93 1013.8
20260904072019 70 112 2.0 8.0 0.01 0.40 0.33 93 1014.2
20260904071540 70 117 3.0 14.0 0.05 0.40 0.33 93 1013.9
20260904071021 70 47 4.0 14.0 0.09 0.40 0.33 93 1014.2
20260904070521 70 352 9.0 13.0 0.16 0.40 0.33 93 1014.6
20260904070042 70 317 6.0 10.0 0.18 0.40 0.33 93 1014.4
20260904065524 70 26 2.0 5.0 0.19 0.40 0.33 93 1014.0
20260904065016 70 137 0.0 2.0 0.20 0.40 0.33 92 1013.9
20260904064536 70 136 1.0 2.0 0.21 0.40 0.33 92 1013.9
20260904064020 71 168 1.0 10.0 0.22 0.40 0.33 92 1013.6
20260904063519 71 146 2.0 10.0 0.25 0.40 0.33 93 1013.2
20260904063046 70 174 3.0 14.0 0.29 0.40 0.33 93 1013.5
20260904062519 70 123 5.0 14.0 0.29 0.40 0.33 93 1013.4
20260904062018 70 190 3.0 8.0 0.29 0.39 0.32 94 1014.2
20260904061539 69 76 3.0 8.0 0.25 0.34 0.27 94 1014.6
20260904061022 70 169 3.0 6.0 0.21 0.29 0.22 94 1014.9
20260904060522 70 134 0.0 6.0 0.16 0.23 0.16 94 1014.9
20260904060108 70 0 2.0 6.0 0.14 0.21 0.14 94 1015.0
20260904055518 70 134 2.0 6.0 0.15 0.21 0.14 94 1014.9
20260904055016 69 0 1.0 6.0 0.15 0.20 0.13 94 1015.0
20260904054538 69 274 3.0 6.0 0.14 0.19 0.12 94 1015.5
20260904054019 69 249 3.0 6.0 0.14 0.18 0.11 94 1015.3
20260904053522 69 169 3.0 11.0 0.08 0.12 0.05 94 1014.9
20260904053131 69 223 4.0 11.0 0.07 0.11 0.04 94 1015.2
20260904052516 69 318 5.0 8.0 0.07 0.11 0.04 94 1015.8
20260904052022 69 294 2.0 4.0 0.06 0.10 0.03 94 1015.6
20260904051601 69 150 1.0 5.0 0.05 0.09 0.02 93 1015.2
20260904051024 69 150 3.0 7.0 0.04 0.08 0.01 93 1014.9
20260904050523 70 49 2.0 8.0 0.03 0.07 0.00 93 1015.8
20260904050039 70 80 3.0 8.0 0.03 0.07 0.00 93 1015.5
20260904045519 70 320 4.0 8.0 0.02 0.06 0.06 93 1016.2
20260904045018 70 348 0.0 5.0 0.01 0.05 0.05 92 1016.2
20260904044549 70 39 3.0 8.0 0.01 0.05 0.05 92 1015.8
20260904044021 70 51 3.0 8.0 0.00 0.04 0.04 92 1015.7
20260904043521 70 72 4.0 8.0 0.00 0.04 0.04 92 1015.8
20260904043039 70 26 3.0 6.0 0.00 0.04 0.04 92 1016.0
20260904042520 70 63 1.0 5.0 0.00 0.04 0.04 92 1015.2
20260904042020 70 150 2.0 5.0 0.00 0.04 0.04 91 1015.3
20260904041536 70 161 1.0 4.0 0.00 0.04 0.04 91 1015.2
20260904041019 70 149 2.0 3.0 0.00 0.04 0.04 91 1015.2
20260904040518 70 103 0.0 3.0 0.00 0.04 0.04 90 1015.3
20260904040047 70 194 1.0 3.0 0.00 0.04 0.04 90 1015.6
20260904035517 70 113 1.0 3.0 0.00 0.04 0.04 90 1015.3
20260904035020 70 175 1.0 4.0 0.00 0.04 0.04 91 1015.7
20260904034538 70 139 1.0 4.0 0.00 0.04 0.04 91 1015.5
20260904034021 69 169 2.0 4.0 0.00 0.04 0.04 92 1015.4
20260904033520 69 130 0.0 2.0 0.00 0.04 0.04 92 1015.2
20260904033049 69 0 0.0 2.0 0.00 0.04 0.04 92 1015.3
20260904032520 69 0 0.0 2.0 0.00 0.04 0.04 92 1015.2
20260904032016 69 0 0.0 2.0 0.00 0.04 0.04 92 1015.3
20260904031535 69 123 0.0 2.0 0.00 0.04 0.04 92 1015.3
20260904031019 69 0 0.0 2.0 0.00 0.04 0.04 92 1015.5
20260904030516 69 123 0.0 2.0 0.00 0.04 0.04 92 1015.5
20260904030041 69 0 0.0 2.0 0.00 0.04 0.04 92 1015.7
20260904025515 69 0 0.0 3.0 0.00 0.04 0.04 91 1015.6
20260904025021 69 152 1.0 3.0 0.00 0.04 0.04 91 1015.6
20260904024539 70 45 1.0 4.0 0.00 0.04 0.04 91 1015.8
20260904024020 70 25 0.0 4.0 0.00 0.04 0.04 91 1015.8
20260904023520 70 56 2.0 3.0 0.00 0.04 0.04 91 1015.7
20260904023050 70 95 0.0 2.0 0.00 0.04 0.04 91 1015.6
20260904022516 70 0 0.0 2.0 0.00 0.04 0.04 91 1015.5
20260904022020 70 0 0.0 2.0 0.00 0.04 0.04 90 1015.4
20260904021539 70 60 1.0 2.0 0.00 0.04 0.04 90 1015.4
20260904021016 70 0 0.0 2.0 0.00 0.04 0.04 91 1015.4
20260904020518 70 46 0.0 2.0 0.00 0.04 0.04 91 1015.3
20260904020040 70 30 0.0 2.0 0.00 0.04 0.04 90 1015.3
20260904015518 70 0 0.0 1.0 0.00 0.04 0.04 90 1015.2
20260904015022 70 0 0.0 1.0 0.00 0.04 0.04 91 1015.2
20260904014539 70 0 0.0 2.0 0.00 0.04 0.04 91 1015.2
20260904014020 70 63 1.0 2.0 0.00 0.04 0.04 90 1015.1
20260904013520 70 0 0.0 1.0 0.00 0.04 0.04 90 1015.0
20260904013044 70 0 0.0 2.0 0.00 0.04 0.04 90 1015.0
20260904012525 70 0 0.0 2.0 0.00 0.04 0.04 89 1014.9
20260904012021 71 0 0.0 2.0 0.00 0.04 0.04 88 1014.8
20260904011543 71 188 0.0 2.0 0.00 0.04 0.04 88 1014.8
20260904011017 71 188 0.0 1.0 0.00 0.04 0.04 88 1014.7
20260904010527 71 0 0.0 0.0 0.00 0.04 0.04 87 1014.7
20260904010044 72 0 0.0 0.0 0.00 0.04 0.04 86 1014.7
20260904005518 72 0 0.0 2.0 0.00 0.04 0.04 86 1014.7
20260904005018 72 0 0.0 2.0 0.00 0.04 0.04 86 1014.7
20260904004540 72 0 0.0 2.0 0.00 0.04 0.04 85 1014.5
20260904004023 73 0 0.0 2.0 0.00 0.04 0.04 85 1014.5
20260904003531 73 144 0.0 3.0 0.00 0.04 0.04 84 1014.3
20260904003040 73 155 1.0 5.0 0.00 0.04 0.04 84 1014.2
20260904002521 73 169 2.0 5.0 0.00 0.04 0.04 84 1014.2
20260904002024 73 153 1.0 4.0 0.00 0.04 0.04 84 1014.1
20260904001540 73 161 2.0 3.0 0.00 0.04 0.04 83 1014.1
20260904001023 73 138 1.0 4.0 0.00 0.04 0.04 83 1014.2
20260904000520 73 159 2.0 4.0 0.00 0.04 0.04 83 1014.2
20260904000108 74 163 1.0 4.0 0.00 0.04 0.04 82 1014.2
20260903235517 74 142 2.0 5.0 0.00 0.04 0.04 82 1014.2
20260903235018 74 150 2.0 5.0 0.00 0.04 0.04 82 1014.3
20260903234540 74 171 1.0 5.0 0.00 0.04 0.04 82 1014.3
20260903234021 74 109 2.0 8.0 0.00 0.04 0.04 81 1014.1
20260903233524 74 161 3.0 8.0 0.00 0.04 0.04 81 1014.0
20260903233100 75 123 2.0 6.0 0.00 0.04 0.04 80 1014.0
20260903232519 75 148 2.0 6.0 0.00 0.04 0.04 82 1013.9
20260903232020 75 152 2.0 6.0 0.00 0.04 0.04 81 1013.9
20260903231547 75 145 2.0 5.0 0.00 0.04 0.04 81 1014.0
20260903231020 75 163 2.0 4.0 0.00 0.04 0.04 81 1014.1
20260903230522 75 130 1.0 6.0 0.00 0.04 0.04 81 1014.2
20260903225522 76 155 3.0 5.0 0.00 0.04 0.04 79 1014.3
20260903225019 76 127 2.0 5.0 0.00 0.04 0.04 80 1014.1
20260903224543 75 157 2.0 4.0 0.00 0.04 0.04 81 1014.2
20260903224022 75 169 2.0 3.0 0.00 0.04 0.04 81 1014.4
20260903223530 75 144 1.0 2.0 0.00 0.04 0.04 81 1014.2
20260903223108 76 151 1.0 2.0 0.00 0.04 0.04 81 1014.1
20260903222516 76 76 1.0 3.0 0.00 0.04 0.04 81 1014.2
20260903222023 75 149 1.0 4.0 0.00 0.04 0.04 81 1014.3
20260903221536 76 155 0.0 7.0 0.00 0.04 0.04 81 1014.2
20260903221018 75 159 2.0 7.0 0.00 0.04 0.04 82 1014.1
20260903220517 75 164 3.0 6.0 0.00 0.04 0.04 82 1014.0
20260903220040 76 129 0.0 5.0 0.00 0.04 0.04 82 1014.0
20260903215521 75 164 3.0 5.0 0.00 0.04 0.04 83 1014.0
20260903215021 75 151 2.0 4.0 0.00 0.04 0.04 83 1014.0
20260903214546 75 112 2.0 3.0 0.00 0.04 0.04 84 1013.9
20260903214021 75 134 1.0 3.0 0.00 0.04 0.04 84 1014.1
20260903213520 75 69 1.0 3.0 0.00 0.04 0.04 84 1014.0
20260903213048 75 107 1.0 3.0 0.00 0.04 0.04 83 1014.0
20260903212517 75 69 1.0 6.0 0.00 0.04 0.04 83 1014.0
20260903212019 75 155 2.0 6.0 0.00 0.04 0.04 83 1014.1
20260903211542 75 147 3.0 6.0 0.00 0.04 0.04 83 1014.0
20260903211018 75 163 2.0 7.0 0.00 0.04 0.04 82 1014.0
20260903210516 76 134 2.0 10.0 0.00 0.04 0.04 83 1013.9
20260903210059 76 90 3.0 10.0 0.00 0.04 0.04 82 1014.2
20260903205517 76 148 5.0 11.0 0.00 0.04 0.04 81 1014.2
20260903205020 77 143 5.0 11.0 0.00 0.04 0.04 81 1013.9
20260903204544 78 74 1.0 5.0 0.00 0.04 0.04 81 1013.9
20260903204018 78 127 2.0 5.0 0.00 0.04 0.04 80 1014.0
20260903203520 78 130 1.0 3.0 0.00 0.04 0.04 79 1014.0
20260903203038 79 150 2.0 3.0 0.00 0.04 0.04 78 1014.0
20260903202523 79 128 1.0 2.0 0.00 0.04 0.04 77 1014.1
20260903202017 80 132 1.0 2.0 0.00 0.04 0.04 74 1014.2
20260903201538 80 66 0.0 2.0 0.00 0.04 0.04 74 1014.5
20260903201016 81 30 0.0 2.0 0.00 0.04 0.04 74 1014.6
20260903200516 80 92 0.0 3.0 0.00 0.04 0.04 74 1014.4
20260903200039 81 74 1.0 3.0 0.00 0.04 0.04 74 1014.4
20260903195519 82 10 0.0 6.0 0.00 0.04 0.04 73 1014.5
20260903195021 82 47 2.0 6.0 0.00 0.04 0.04 72 1014.5
20260903194546 81 55 3.0 6.0 0.00 0.04 0.04 73 1014.3
20260903194021 81 46 2.0 5.0 0.00 0.04 0.04 74 1014.4
20260903193522 82 109 2.0 5.0 0.00 0.04 0.04 75 1014.6
20260903193041 82 327 1.0 3.0 0.00 0.04 0.04 75 1014.8
20260903192517 81 312 0.0 4.0 0.00 0.04 0.04 77 1014.7
20260903192018 79 44 2.0 4.0 0.00 0.04 0.04 77 1014.5
20260903191534 80 98 0.0 4.0 0.00 0.04 0.04 79 1014.4
20260903191018 79 51 2.0 4.0 0.00 0.04 0.04 77 1014.4
20260903190518 80 34 2.0 4.0 0.00 0.04 0.04 77 1014.5
20260903190040 80 36 1.0 5.0 0.00 0.04 0.04 75 1014.4
20260903185519 80 352 1.0 6.0 0.00 0.04 0.04 76 1014.4
20260903185023 80 12 1.0 6.0 0.00 0.04 0.04 75 1014.4
20260903184549 79 352 4.0 6.0 0.00 0.04 0.04 78 1014.4
20260903184025 79 328 3.0 6.0 0.00 0.04 0.04 79 1014.4
20260903183519 79 352 2.0 5.0 0.00 0.04 0.04 79 1014.5
20260903183040 78 52 2.0 4.0 0.00 0.04 0.04 81 1014.6
20260903182521 78 35 2.0 4.0 0.00 0.04 0.04 82 1014.7
20260903182018 78 54 1.0 7.0 0.00 0.04 0.04 83 1014.7
20260903181539 78 9 2.0 7.0 0.00 0.04 0.04 81 1014.8
20260903181024 78 347 3.0 4.0 0.00 0.04 0.04 82 1015.1
20260903180517 78 24 2.0 11.0 0.00 0.04 0.04 80 1014.7
20260903180042 78 15 3.0 13.0 0.00 0.04 0.04 78 1014.6
20260903175520 78 277 5.0 13.0 0.00 0.04 0.04 78 1014.9
20260903175019 78 298 7.0 14.0 0.00 0.04 0.04 80 1014.9
20260903174540 77 294 8.0 14.0 0.00 0.04 0.04 82 1015.0
20260903174016 77 308 9.0 14.0 0.00 0.04 0.04 84 1015.1
20260903173522 76 311 6.0 12.0 0.00 0.04 0.04 85 1015.1
20260903173039 75 259 6.0 14.0 0.00 0.04 0.04 86 1014.8
20260903172519 73 233 5.0 14.0 0.00 0.04 0.04 89 1014.8
20260903172021 73 219 7.0 14.0 0.00 0.04 0.04 89 1014.6
20260903171539 72 248 6.0 11.0 0.00 0.04 0.04 90 1014.6
20260903171016 72 163 4.0 8.0 0.00 0.04 0.04 91 1014.5
20260903170519 72 163 4.0 9.0 0.00 0.04 0.04 91 1014.5
20260903170036 72 211 4.0 9.0 0.01 0.04 0.04 91 1014.6
20260903165515 72 130 3.0 7.0 0.01 0.04 0.04 92 1014.7
20260903165015 71 202 3.0 7.0 0.01 0.04 0.04 92 1014.6
20260903164540 71 221 2.0 7.0 0.01 0.04 0.04 92 1014.5
20260903164019 71 170 3.0 5.0 0.01 0.04 0.04 92 1014.5
20260903163518 71 177 2.0 5.0 0.01 0.04 0.04 92 1014.6
20260903163042 71 195 2.0 5.0 0.01 0.04 0.04 92 1014.7
20260903162524 71 216 2.0 7.0 0.01 0.04 0.04 92 1014.8
20260903162020 70 239 2.0 7.0 0.01 0.04 0.04 92 1015.1
20260903161537 70 281 2.0 8.0 0.01 0.04 0.04 92 1015.2
20260903161019 70 257 3.0 9.0 0.01 0.04 0.04 91 1015.5
20260903160520 70 207 4.0 9.0 0.01 0.04 0.04 91 1015.9
20260903160045 70 242 4.0 8.0 0.00 0.03 0.03 90 1015.9
20260903155522 70 288 3.0 12.0 0.00 0.04 0.03 89 1015.9
20260903155021 70 259 4.0 12.0 0.00 0.04 0.03 88 1016.1
20260903154549 70 278 6.0 12.0 0.01 0.04 0.03 88 1016.4
20260903154024 70 255 6.0 11.0 0.01 0.04 0.03 88 1016.4
20260903153520 70 245 5.0 11.0 0.01 0.04 0.03 88 1016.4
20260903153039 70 250 5.0 11.0 0.01 0.04 0.03 88 1016.6
20260903152521 70 284 4.0 8.0 0.02 0.04 0.03 88 1016.5
20260903152027 70 260 4.0 8.0 0.02 0.04 0.03 88 1016.5
20260903151539 70 221 4.0 7.0 0.02 0.04 0.03 88 1016.3
20260903151019 70 273 4.0 7.0 0.02 0.04 0.03 87 1016.1
20260903150521 70 255 3.0 7.0 0.02 0.04 0.03 88 1015.9
20260903150056 70 179 4.0 7.0 0.02 0.04 0.03 88 1015.5
20260903145520 70 187 2.0 6.0 0.03 0.04 0.03 90 1015.4
20260903145021 70 132 2.0 6.0 0.03 0.04 0.03 90 1015.5
20260903144541 70 173 1.0 2.0 0.02 0.03 0.02 89 1015.7
20260903144019 70 176 1.0 3.0 0.02 0.03 0.02 89 1015.7
20260903143526 70 237 2.0 4.0 0.02 0.03 0.02 88 1015.7
20260903143042 70 224 1.0 7.0 0.02 0.03 0.02 88 1015.6
20260903142521 70 254 3.0 7.0 0.01 0.02 0.01 87 1015.5
20260903142021 70 222 4.0 9.0 0.01 0.02 0.01 87 1015.5
20260903141538 70 210 2.0 11.0 0.01 0.02 0.01 88 1015.6